GW0780 Weather Reports


Display with metric or nautical units.
time (UTC)temp
F
wind
direction
speed
MPH
gust
MPH
rain 1hr
in
rain 24hr
in
rain mn
in
humidity
%
barometer
mb
20260504222042 63 351 2.0 4.0 0.00 0.02 0.02 54 1006.7
20260504221025 64 62 1.0 3.0 0.00 0.02 0.02 54 1006.8
20260504220027 63 6 2.0 5.0 0.00 0.02 0.02 55 1006.8
20260504215031 64 341 3.0 5.0 0.00 0.02 0.02 54 1006.7
20260504214017 65 344 4.0 7.0 0.01 0.02 0.02 52 1006.6
20260504213018 66 227 3.0 8.0 0.01 0.02 0.02 54 1006.5
20260504212042 66 297 3.0 6.0 0.01 0.02 0.02 52 1006.6
20260504211025 67 230 4.0 9.0 0.01 0.02 0.02 50 1006.6
20260504210028 67 326 4.0 7.0 0.01 0.02 0.02 51 1006.5
20260504205031 66 309 5.0 7.0 0.01 0.02 0.02 52 1006.5
20260504204036 67 17 5.0 9.0 0.00 0.01 0.01 51 1006.3
20260504203019 68 7 6.0 8.0 0.00 0.01 0.01 50 1006.2
20260504202042 69 318 5.0 8.0 0.00 0.01 0.01 50 1006.4
20260504201019 68 300 4.0 6.0 0.00 0.02 0.01 53 1006.3
20260504200016 68 337 5.0 9.0 0.00 0.02 0.01 55 1006.4
20260504195030 65 311 4.0 8.0 0.00 0.02 0.01 61 1006.5
20260504194016 63 193 4.0 8.0 0.00 0.02 0.01 65 1006.5
20260504193019 62 347 3.0 7.0 0.00 0.02 0.01 67 1006.5
20260504192021 59 308 4.0 7.0 0.00 0.02 0.01 75 1006.7
20260504191024 58 209 3.0 7.0 0.00 0.02 0.01 78 1006.8
20260504190027 57 259 2.0 4.0 0.01 0.03 0.01 82 1006.9
20260504185031 56 192 3.0 6.0 0.01 0.03 0.01 88 1007.0
20260504184016 54 226 2.0 3.0 0.01 0.04 0.01 90 1007.2
20260504183039 54 187 1.0 4.0 0.01 0.04 0.01 91 1007.4
20260504182022 54 281 1.0 2.0 0.01 0.04 0.01 91 1007.5
20260504181025 54 308 2.0 4.0 0.01 0.05 0.01 87 1007.6
20260504180028 54 298 2.0 3.0 0.00 0.05 0.00 84 1007.4
20260504175031 53 97 3.0 5.0 0.00 0.05 0.00 82 1007.2
20260504174016 54 103 3.0 4.0 0.00 0.06 0.00 78 1007.0
20260504173019 54 158 4.0 7.0 0.00 0.07 0.00 75 1007.0
20260504172022 54 202 4.0 5.0 0.00 0.07 0.00 75 1006.8
20260504171025 55 195 4.0 6.0 0.00 0.07 0.00 71 1006.8
20260504151026 54 167 7.0 9.0 0.00 0.21 0.00 63 1007.7
20260504141047 61 298 4.0 7.0 0.00 0.26 0.00 43 1008.3
20260504081026 35 353 2.0 4.0 0.00 0.55 0.00 93 1008.3
20260504050110 39 294 2.0 4.0 0.00 0.58 0.00 77 1007.3
20260504045015 39 295 2.0 5.0 0.00 0.58 0.00 78 1007.3
20260504044018 39 306 2.0 4.0 0.00 0.58 0.00 76 1007.3
20260504043021 39 351 4.0 5.0 0.00 0.58 0.00 76 1007.2
20260504042024 40 298 3.0 4.0 0.00 0.58 0.00 77 1007.2
20260504041027 39 313 3.0 4.0 0.00 0.58 0.00 77 1007.0
20260504040030 39 325 4.0 5.0 0.00 0.58 0.00 77 1006.9
20260504035016 40 277 2.0 3.0 0.00 0.58 0.58 78 1006.7
20260504034019 40 293 2.0 5.0 0.00 0.58 0.58 76 1006.7
20260504033022 40 5 4.0 7.0 0.00 0.58 0.58 74 1006.7
20260504032059 41 350 4.0 6.0 0.00 0.58 0.58 73 1006.6
20260504031016 42 331 4.0 8.0 0.00 0.58 0.58 70 1006.5
20260504030030 42 304 4.0 7.0 0.00 0.58 0.58 69 1006.5
20260504025016 41 344 4.0 6.0 0.00 0.58 0.58 69 1006.3
20260504024019 42 321 4.0 5.0 0.00 0.58 0.58 68 1006.3
20260504023042 42 312 4.0 5.0 0.00 0.58 0.58 69 1006.3
20260504022025 42 316 3.0 7.0 0.00 0.58 0.58 69 1006.1
20260504021028 43 294 4.0 7.0 0.00 0.58 0.58 65 1006.1
20260504020031 43 334 3.0 7.0 0.00 0.58 0.58 66 1006.1
20260504015016 43 322 5.0 6.0 0.00 0.58 0.58 64 1006.0
20260504014019 43 325 5.0 8.0 0.00 0.58 0.58 65 1005.9
20260504013022 44 336 4.0 8.0 0.00 0.58 0.58 64 1005.8
20260504012026 44 326 4.0 6.0 0.00 0.58 0.58 63 1005.7
20260504011050 44 300 4.0 8.0 0.00 0.58 0.58 64 1005.6
20260504010032 45 312 5.0 8.0 0.00 0.58 0.58 63 1005.3
20260504005016 45 341 6.0 8.0 0.00 0.58 0.58 63 1005.1
20260504004020 45 335 4.0 7.0 0.00 0.58 0.58 65 1005.0
20260504003023 45 2 4.0 7.0 0.00 0.58 0.58 67 1004.8
20260504002046 46 292 4.0 6.0 0.00 0.58 0.58 68 1004.6
20260504001024 46 327 7.0 10.0 0.00 0.58 0.58 69 1004.4
20260504000015 46 354 4.0 7.0 0.00 0.58 0.58 80 1004.2
20260503235038 45 332 4.0 7.0 0.00 0.58 0.58 87 1004.1
20260503234035 45 0 1.0 3.0 0.00 0.58 0.58 98 1004.0
20260503233025 45 291 2.0 4.0 0.00 0.58 0.58 97 1003.9
20260503232027 46 282 2.0 2.0 0.00 0.58 0.58 96 1003.8
20260503231030 47 283 2.0 3.0 0.00 0.58 0.58 94 1003.6
20260503230016 48 301 2.0 4.0 0.00 0.58 0.58 91 1003.5
20260503225019 48 330 4.0 5.0 0.00 0.58 0.58 86 1003.5
20260503224022 49 342 4.0 6.0 0.00 0.58 0.58 85 1003.4
20260503223026 49 340 2.0 4.0 0.00 0.58 0.58 87 1003.3